Regional Weather Roundup
Issued by NWS

Home | Current Version | Previous Version | Text Only | Print | Product List | Glossary Off
Versions: 1 2 3 4 5 6 7 8 9 10 11 12 13 14 15 16 17 18 19 20 21 22 23 24 25 26 27 28 29 30 31 32 33 34 35 36 37 38 39 40 41 42 43 44 45 46 47 48 49 50

000
ASUS43 KLSX 281759
RWRMO

WEATHER SUMMARY FOR MISSOURI
NATIONAL WEATHER SERVICE SPRINGFIELD MO
1200 PM CST SAT FEB 28 2015

NOTE: "FAIR" INDICATES FEW OR NO CLOUDS BELOW 12,000 FEET WITH NO
       SIGNIFICANT WEATHER AND/OR OBSTRUCTIONS TO VISIBILITY.
       CURRENT SKY AND/OR WEATHER CONDITIONS ARE NOT AVAILABLE FOR
       CHILLICOTHE AND FARMINGTON.

MOZ001>031-035>038-043-044-053-054-281900-
...NORTHERN AND WESTERN MISSOURI...

CITY           SKY/WX    TMP DP  RH WIND       PRES   REMARKS
KANSAS CTY INT LGT SNOW  21  16  81 SE8       30.47F VSB 1   WCI  11
6HR MIN TEMP:  15; 6HR MAX TEMP:  22; 6HR PCP:  0.03;

KANSAS C DTWN  LGT SNOW  23  17  78 E6        30.50F VSB 3/4 WCI  16
6HR MIN TEMP:  17; 6HR MAX TEMP:  23; 6HR PCP: TRACE;

LEE`S SUMMIT   LGT SNOW  21  16  81 E9        30.48F VSB 1   WCI  11
6HR MIN TEMP:  16; 6HR MAX TEMP:  21; 6HR PCP: TRACE;

ST JOSEPH      LGT SNOW  21  16  81 SE7       30.50F WCI  12
6HR MIN TEMP:  13; 6HR MAX TEMP:  21; 6HR PCP: TRACE;

CHILLICOTHE      N/A     23  14  68 SE9       30.54F WCI  13
6HR MIN TEMP:  13; 6HR MAX TEMP:  24;

KIRKSVILLE     PTSUNNY   23  10  57 SE13      30.53F WCI  11
6HR MIN TEMP:  11; 6HR MAX TEMP:  24;


$$
MOZ066>068-077>081-088>096-101>105-281900-
...SOUTHWEST MISSOURI...

CITY           SKY/WX    TMP DP  RH WIND       PRES   REMARKS
SPRINGFIELD    SNOW      23  18  81 SE13      30.44F VSB 1/2 WCI  11
6HR MIN TEMP:  20; 6HR MAX TEMP:  23; 6HR PCP:  0.07;

JOPLIN         SNOW      23  20  88 E7        30.46F VSB 1/2 WCI  15
6HR MIN TEMP:  20; 6HR MAX TEMP:  23; 6HR PCP:  0.07;


$$
MOZ032>034-039>042-045>050-055>058-069>072-281900-
...CENTRAL MISSOURI...

CITY           SKY/WX    TMP DP  RH WIND       PRES   REMARKS
COLUMBIA       LGT SNOW  23  14  68 SE8       30.52F WCI  14
6HR MIN TEMP:  16; 6HR MAX TEMP:  24; 6HR PCP: TRACE;

JEFFERSON CITY LGT SNOW  24  16  71 SE9       30.55F WCI  14
6HR MIN TEMP:  18; 6HR MAX TEMP:  26; 6HR PCP: TRACE;

ROLLA          LGT SNOW  23  16  74 E9        30.49F WCI  13
6HR MIN TEMP:  17; 6HR MAX TEMP:  23; 6HR PCP: TRACE;

SEDALIA        LGT SNOW  23  18  81 SE7       30.51F VSB 3/4 WCI  15
6HR MIN TEMP:  18; 6HR MAX TEMP:  25; 6HR PCP:  0.01;

OSAGE BEACH    CLOUDY    23  18  80 SE5       30.51F VSB 1   WCI  17

$$
MOZ051-052-059>065-281900-
...EAST CENTRAL MISSOURI...

CITY           SKY/WX    TMP DP  RH WIND       PRES   REMARKS
ST LOUIS INTL  CLOUDY    27  11  51 SE10      30.59F WCI  17
6HR MIN TEMP:  16; 6HR MAX TEMP:  27;

SPIRIT OF STL  CLOUDY    26   8  46 E9        30.58F WCI  17
6HR MIN TEMP:  17; 6HR MAX TEMP:  27;

ST CHARLES     CLOUDY    23  11  60 E8        30.60F WCI  14
6HR MIN TEMP:  13; 6HR MAX TEMP:  23;


$$
MOZ072>076-082>087-097>100-106>115-281900-
...SOUTH CENTRAL AND SOUTHEAST MISSOURI...

CITY           SKY/WX    TMP DP  RH WIND       PRES   REMARKS
CAPE GIRARDEAU CLOUDY    30  14  51 E7        30.58F WCI  23
6HR MIN TEMP:  20; 6HR MAX TEMP:  30;

FARMINGTON     CLOUDY    25  16  68 SE8       30.57F WCI  16
6HR MIN TEMP:  16; 6HR MAX TEMP:  25;

POPLAR BLUFF   CLOUDY    25  14  63 NE7       30.57F WCI  17
6HR MIN TEMP:  20; 6HR MAX TEMP:  25; 6HR PCP:  0.01;

WEST PLAINS    LGT SNOW  22  18  85 SE7       30.49F VSB 3/4 WCI  13
6HR MIN TEMP:  18; 6HR MAX TEMP:  23; 6HR PCP:  0.01;


$$


USA.gov is the U.S. government's official web portal to all federal, state and local government web resources and services.